Flag for U.S.A. Weather past 2 weeks in Germantown, Maryland, U.S.A.

Now
86 °F

Scattered clouds.


Feels Like: 89 °F
Forecast: 67 / 85 °F
Wind: 6 mph from South

Location: Frederick Municipal Airport

Current Time: May 29, 2015 at 6:41:34 PM

Latest Report: May 29, 2015 at 5:47 PM


Visibility: 10 mi

Pressure: 30.20 "Hg

Humidity: 55%

Dew point: 68 °F

Location of GermantownLocation

Historic Weather in Germantown — Graph

°F

Germantown temperature yesterday

Maximum temperature yesterday: 90 °F (at 3:47 PM)
Minimum temperature yesterday: 63 °F (at 4:10 AM)
Average temperature yesterday: 72 °F

Past Weeks' High & Low Weather Summary

 TemperatureHumidityPressure
High91 °F (May 18, 3:59 PM)100% (May 16, 2:40 AM)30.49 "Hg (May 16, 2:40 AM)
Low39 °F (May 23, 6:00 AM)15% (May 14, 5:51 PM)29.87 "Hg (May 19, 4:50 PM)
Average65 °F77%30.18 "Hg
* Reported May 14 4:47 PM — May 29 4:50 PM, Germantown, Weather by CustomWeather, © 2015

Note: Actual official high and low records may vary slightly from our data, if they occured in-between our weather recording intervals... More about our weather records

Advertising

Germantown weather history for previous 24 hours

 ConditionsComfort  
Time TempWeatherWind HumidityBarometerVisibility
4:50 PM
Fri, May 29
88 °FScattered clouds.7 mph55%30.21 "Hg10 mi
3:47 PM86 °FScattered clouds.9 mph59%30.24 "Hg10 mi
2:53 PM84 °FScattered clouds.6 mph62%30.25 "Hg10 mi
1:45 PM84 °FPartly sunny.6 mph62%30.27 "Hg10 mi
12:45 PM82 °FSunny.5 mph58%30.28 "Hg10 mi
11:55 AM81 °FSunny.5 mph58%30.29 "Hg10 mi
10:45 AM77 °FSunny.6 mph61%30.30 "Hg10 mi
9:47 AM73 °FSunny.6 mph65%30.31 "Hg10 mi
8:45 AM72 °FScattered clouds.8 mph69%30.32 "Hg10 mi
7:45 AM70 °FPassing clouds.6 mph73%30.21 "Hg10 mi
6:45 AM64 °FSunny.6 mph83%30.30 "Hg10 mi
6:25 AM63 °FClear.5 mph88%30.29 "Hg10 mi
6:10 AM63 °FClear.5 mph88%30.29 "Hg10 mi
5:50 AM64 °FPassing clouds.5 mph83%30.28 "Hg10 mi
5:30 AM64 °FPassing clouds.7 mph83%30.27 "Hg10 mi
5:10 AM63 °FPassing clouds.6 mph88%30.27 "Hg10 mi
4:50 AM64 °FPassing clouds.5 mph83%30.27 "Hg10 mi
4:30 AM64 °FPassing clouds.6 mph88%30.26 "Hg10 mi
4:10 AM64 °FPassing clouds.6 mph88%30.26 "Hg10 mi
3:50 AM66 °FClear.7 mph83%30.25 "Hg10 mi
3:30 AM66 °FClear.8 mph83%30.25 "Hg10 mi
3:10 AM66 °FClear.7 mph83%30.25 "Hg10 mi
2:50 AM68 °FPassing clouds.8 mph78%30.25 "Hg10 mi
2:30 AM68 °FOvercast.7 mph83%30.25 "Hg10 mi
2:10 AM70 °FOvercast.8 mph78%30.25 "Hg10 mi
1:50 AM68 °FOvercast.6 mph83%30.26 "Hg10 mi
1:30 AM68 °FOvercast.3 mph88%30.26 "Hg10 mi
1:10 AM68 °FPassing clouds.6 mph88%30.25 "Hg10 mi
12:50 AM68 °FPassing clouds.No wind88%30.25 "Hg10 mi
12:30 AM68 °FClear.No wind88%30.25 "Hg10 mi
11:50 PM
Thu, May 28
68 °FClear.No wind94%30.25 "Hg10 mi
11:30 PM68 °FClear.No wind94%30.24 "Hg10 mi
10:50 PM70 °FClear.No wind88%30.24 "Hg10 mi
10:30 PM70 °FClear.No wind88%30.24 "Hg10 mi
10:10 PM72 °FPassing clouds.No wind83%30.24 "Hg10 mi
9:50 PM73 °FPassing clouds.No wind83%30.23 "Hg10 mi
9:30 PM73 °FClear.3 mph78%30.22 "Hg10 mi
9:10 PM73 °FScattered clouds.3 mph83%30.22 "Hg10 mi
8:30 PM77 °FScattered clouds.3 mph69%30.20 "Hg10 mi
7:47 PM81 °FSunny.3 mph66%30.18 "Hg10 mi
6:47 PM84 °FScattered clouds.7 mph55%30.18 "Hg10 mi
Weather by CustomWeather, © 2015

See weather overviewHow to use our weather pages